TimeEDT,TemperatureF,Dew PointF,Humidity,Sea Level PressureIn,VisibilityMPH,Wind Direction,Wind SpeedMPH,Gust SpeedMPH,PrecipitationIn,Events,Conditions,WindDirDegrees,DateUTC
12:53 AM,63.0,55.0,75,30.04,10.0,SSW,5.8,-,N/A,,Clear,200,2013-10-02 04:53:00
1:53 AM,62.1,54.0,75,30.04,10.0,Calm,Calm,-,N/A,,Clear,0,2013-10-02 05:53:00
2:53 AM,63.0,55.0,75,30.04,10.0,SSW,4.6,-,N/A,,Clear,200,2013-10-02 06:53:00
3:53 AM,62.1,55.0,78,30.04,10.0,SSW,4.6,-,N/A,,Clear,200,2013-10-02 07:53:00
4:53 AM,60.1,54.0,80,30.04,10.0,SSW,4.6,-,N/A,,Clear,200,2013-10-02 08:53:00
5:53 AM,60.1,54.0,80,30.05,10.0,SSW,4.6,-,N/A,,Clear,200,2013-10-02 09:53:00
6:53 AM,59.0,54.0,83,30.06,10.0,SSW,5.8,-,N/A,,Clear,210,2013-10-02 10:53:00
7:53 AM,60.1,54.0,80,30.08,10.0,SSW,3.5,-,N/A,,Clear,210,2013-10-02 11:53:00
8:53 AM,66.0,57.0,73,30.09,10.0,SSW,3.5,-,N/A,,Clear,200,2013-10-02 12:53:00
9:53 AM,72.0,57.9,61,30.10,10.0,South,5.8,-,N/A,,Clear,190,2013-10-02 13:53:00
10:53 AM,78.1,59.0,52,30.09,10.0,West,8.1,-,N/A,,Clear,270,2013-10-02 14:53:00
11:53 AM,80.1,57.0,45,30.08,10.0,WNW,11.5,-,N/A,,Clear,290,2013-10-02 15:53:00
12:53 PM,82.0,55.9,41,30.07,10.0,NW,10.4,-,N/A,,Clear,310,2013-10-02 16:53:00
1:53 PM,82.0,57.0,42,30.05,10.0,WNW,9.2,-,N/A,,Mostly Cloudy,300,2013-10-02 17:53:00
2:53 PM,82.9,55.9,39,30.03,10.0,WSW,5.8,-,N/A,,Partly Cloudy,240,2013-10-02 18:53:00
3:53 PM,84.0,55.9,38,30.02,10.0,WNW,9.2,-,N/A,,Clear,300,2013-10-02 19:53:00
4:53 PM,84.0,55.0,37,30.02,10.0,WNW,10.4,-,N/A,,Clear,300,2013-10-02 20:53:00
5:53 PM,82.0,55.0,39,30.02,10.0,WNW,5.8,-,N/A,,Clear,300,2013-10-02 21:53:00
6:53 PM,77.0,55.0,47,30.04,10.0,WNW,4.6,-,N/A,,Clear,290,2013-10-02 22:53:00
7:53 PM,70.0,55.9,61,30.05,10.0,Calm,Calm,-,N/A,,Clear,0,2013-10-02 23:53:00
8:53 PM,68.0,55.9,65,30.06,10.0,Calm,Calm,-,N/A,,Clear,0,2013-10-03 00:53:00
9:53 PM,66.9,55.9,68,30.06,10.0,Calm,Calm,-,N/A,,Clear,0,2013-10-03 01:53:00
10:53 PM,64.9,55.9,73,30.07,10.0,SW,3.5,-,N/A,,Clear,230,2013-10-03 02:53:00
11:53 PM,66.0,55.9,70,30.08,10.0,SSW,3.5,-,N/A,,Clear,210,2013-10-03 03:53:00